Location: İstanbul
(41.0082°N, 28.9784°E)
Time: 22:13:56
(UTC+03:00)

CUBESAT XI-V - Visible Passes

Search period start: 22 April 2024 00:00
Search period end: 02 May 2024 00:00
Orbit: 658 x 681 km, 98.2° (Epoch: 21 April)

Date Brightness Start Highest point End Pass type
(mag) Time Alt. Az. Time Alt. Az. Time Alt. Az.
22 Apr ? 03:00:13 42° N 03:00:13 42° N 03:03:18 10° N visible
23 Apr ? 01:54:50 17° ENE 01:54:50 17° ENE 01:57:32 10° NNE visible
23 Apr ? 03:33:01 33° NW 03:33:01 33° NW 03:35:47 10° NNW visible
24 Apr ? 02:27:39 31° NE 02:27:39 31° NE 02:31:01 10° N visible
24 Apr ? 04:05:49 19° WNW 04:05:49 19° WNW 04:07:43 10° NW visible
25 Apr ? 03:00:25 49° N 03:00:25 49° N 03:03:52 10° N visible
26 Apr ? 01:55:01 17° ENE 01:55:08 17° ENE 01:58:04 10° NNE visible
26 Apr ? 03:33:12 37° NW 03:33:12 37° NW 03:36:18 10° NNW visible
27 Apr ? 02:27:46 33° ENE 02:27:46 33° ENE 02:31:29 10° N visible
27 Apr ? 04:05:57 20° WNW 04:05:57 20° WNW 04:08:11 10° NW visible
28 Apr ? 03:00:32 58° NNE 03:00:32 58° NNE 03:04:19 10° N visible
29 Apr ? 01:55:04 17° ENE 01:55:33 17° ENE 01:58:29 10° NNE visible
29 Apr ? 03:33:15 42° WNW 03:33:15 42° WNW 03:36:42 10° NNW visible
30 Apr ? 02:27:48 34° ENE 02:27:48 34° ENE 02:31:51 10° N visible
30 Apr ? 04:05:59 21° WNW 04:05:59 21° WNW 04:08:32 10° NW visible
01 May ? 03:00:31 66° NNE 03:00:31 66° NNE 03:04:38 10° N visible
